This is the latest recevied weather packets stored in our database for station/object EA1IDU-12. If no packets are shown the sender has not sent any weather packets the latest 10 day(s).
| Time | Temp. | Humidity | Pressure | Rain* | Wind** | Luminosity | Snow |
|---|---|---|---|---|---|---|---|
| 1787411524 | 30° C | 33% | 1024 hPa | - | - | - | - |
| 1787410624 | 30° C | 35% | 1024 hPa | - | - | - | - |
| 1787409724 | 28.33° C | 38% | 1024 hPa | - | - | - | - |
| 1787408823 | 27.22° C | 39% | 1024.2 hPa | - | - | - | - |
| 1787407923 | 28.33° C | 37% | 1024.3 hPa | - | - | - | - |
| 1787407023 | 28.89° C | 38% | 1024.5 hPa | - | - | - | - |
| 1787406123 | 29.44° C | 38% | 1024.4 hPa | - | - | - | - |
| 1787405223 | 28.89° C | 41% | 1024.5 hPa | - | - | - | - |
| 1787404322 | 28.33° C | 41% | 1024.6 hPa | - | - | - | - |
| 1787403422 | 27.78° C | 43% | 1024.8 hPa | - | - | - | - |
| 1787402522 | 27.78° C | 44% | 1025 hPa | - | - | - | - |
| 1787401622 | 27.22° C | 47% | 1025 hPa | - | - | - | - |
| 1787400722 | 26.67° C | 48% | 1025 hPa | - | - | - | - |
| 1787399821 | 26.67° C | 51% | 1025.1 hPa | - | - | - | - |
| 1787398921 | 25.56° C | 53% | 1025.3 hPa | - | - | - | - |
| 1787398020 | 25.56° C | 55% | 1025.4 hPa | - | - | - | - |
| 1787397136 | 24.44° C | 57% | 1025.4 hPa | - | - | - | - |
| 1787396236 | 23.89° C | 59% | 1025.8 hPa | - | - | - | - |
| 1787395336 | 22.78° C | 59% | 1025.9 hPa | - | - | - | - |
| 1787394436 | 22.22° C | 60% | 1026 hPa | - | - | - | - |
| 1787393536 | 22.22° C | 64% | 1026.1 hPa | - | - | - | - |
| 1787392636 | 21.67° C | 66% | 1026.1 hPa | - | - | - | - |
| 1787391735 | 20.56° C | 67% | 1026.2 hPa | - | - | - | - |
| 1787390835 | 20° C | 68% | 1026.3 hPa | - | - | - | - |
| 1787389935 | 19.44° C | 73% | 1026.2 hPa | - | - | - | - |
* Rain since midnight (hover to see other rain measurements)
** Current wind speed in m/s (hover to see current wind gust speed)